CZ-6A DEB, 61471

Orbit data source: Space-Track

CZ-6A DEB, 61471 is space debris in LEO originally from a launch on Tue, 06 Aug 2024 UTC launched from the Taiyaun Space Center, China (TSC). Debris objects in space refer to the collection of defunct objects orbiting the Earth. Examples of debris include non-operational satellites, rocket bodies, and fragments generated from explosions, collisions, or faulty payload assembly.

Loading next visibility...
Identifier
61471, 2024-140AAD
Orbit
LEO
Country
Flag of CNCN / PRC
Related business
Manufacturer
SAST
Mission
Spacecraft
Bus & Motor
Unknown
Mass
Unknown
Launch date (UTC)
2024-08-06 (1 year ago)
Launch vehicle
Unknown
Launch site
Taiyaun Space Center, China (TSC)
Object type
Payload
Rocket body
Debris
Shape & HBR
Unknown
Radar Cross Section
Small (<0.1 m²)

Expand to show TLE details & history
Last TLE update: 3 days ago

TLE from 3 days ago
0 CZ-6A DEB
1 61471U 24140AAD 25259.08592617  .00002289  00000-0  12358-2 0  9993
2 61471  88.9100 302.2148 0107834 359.7084   0.4018 14.09442653 51351
Epoch: 2025-09-16T02:03Z
TLE epoch observation values (Epoch: 2025-09-16T02:03:44.021Z)
Latitude
-0.00007°
Longitude
-83.9999°
Altitude
786.237 km
Speed
7.501 km/s
True Right ascension
20h 08m 51s
True Declination
0° 00' 00"
Sunlit
Object was in full shadow at epoch
Visualization orbit readout
Latitude
Unknown
Longitude
Unknown
Altitude
Unknown
Speed
Unknown
Apparent Right ascension
Unknown
Apparent Declination
Unknown
Sunlit
N/A
Visualization observer readout
Local Sidereal Time
13:00:26
Azimuth
Unknown
Elevation
Unknown
Doppler factor
Unknown
Orbital elements
Apogee altitude
936.279 km
Perigee altitude
780.213 km
Semi-major axis
7,236.383 km
Eccentricity
0.01078
Inclination
88.91°
RAAN
302.2148°
Arg. of periapsis
359.7084°
True anomaly
0.41058°
Mean anomaly
0.4018°
Eccentric anomaly
0.40618°
Mean motion
3.52583 °/min
Orbital period
102.1 mins
BSTAR
0.0012358
Loading maneuver chart data...
Computing Atmospheric mass density...
Loading historical data...
Loading historical data...
Loading historical data...
Loading historical data...
Loading historical data...
Loading historical data...
Loading historical data...

Documentation

Showing up to 5 results
|